When you browse on this site, cookies collect data to enhance your experience and personalize the content and advertising you see.
Visit our Privacy Policy to learn more. By continuing to use the site, you agree to this use of cookies and data.
  • In United Kingdom
  • List of Countries
  • For 7 days
  • Water Temperature
  • Satellite Maps
  • Weather Map
  • Weather Widgets
  • user-avatar
    Login

    Hourly Weather Bafatá

    Today, 17 November, Saturday

    Time Temperature Precipitation Wind Pressure Humidity
    00:00 +28°C° 0 mm 1 mps 757 mmHg 40%
    01:00 +27°C° 0 mm 1 mps 757 mmHg 40%
    02:00 +26°C° 0 mm 1 mps 757 mmHg 41%
    03:00 +26°C° 0 mm 1 mps 757 mmHg 41%
    04:00 +25°C° 0 mm 1 mps 757 mmHg 40%
    05:00 +25°C° 0 mm 1 mps 757 mmHg 40%
    06:00 +27°C° 0 mm 1 mps 757 mmHg 36%
    07:00 +28°C° 0 mm 1 mps 757 mmHg 32%
    08:00 +30°C° 0 mm 1 mps 758 mmHg 29%
    09:00 +33°C° 0 mm 1 mps 757 mmHg 25%
    10:00 +36°C° 0 mm 2 mps 757 mmHg 21%
    11:00 +39°C° 0 mm 3 mps 757 mmHg 17%
    12:00 +39°C° 0 mm 2 mps 756 mmHg 16%
    13:00 +40°C° 0 mm 2 mps 755 mmHg 15%
    14:00 +41°C° 0 mm 2 mps 754 mmHg 15%
    15:00 +39°C° 0 mm 1 mps 755 mmHg 17%
    16:00 +37°C° 0 mm 1 mps 755 mmHg 20%
    17:00 +35°C° 0 mm 1 mps 755 mmHg 22%
    18:00 +34°C° 0 mm 1 mps 755 mmHg 25%
    19:00 +32°C° 0 mm 1 mps 756 mmHg 28%
    20:00 +30°C° 0 mm 1 mps 756 mmHg 31%
    21:00 +29°C° 0 mm 2 mps 757 mmHg 35%
    22:00 +28°C° 0 mm 2 mps 757 mmHg 40%
    23:00 +28°C° 0 mm 2 mps 757 mmHg 44%

    Tomorrow, 18 November, Sunday

    Time Temperature Precipitation Wind Pressure Humidity
    00:00 +27°C° 0 mm 2 mps 757 mmHg 47%
    01:00 +26°C° 0 mm 2 mps 757 mmHg 49%
    02:00 +26°C° 0 mm 2 mps 757 mmHg 51%
    03:00 +25°C° 0 mm 1 mps 757 mmHg 54%
    04:00 +25°C° 0 mm 1 mps 757 mmHg 56%
    05:00 +24°C° 0 mm 1 mps 757 mmHg 59%
    06:00 +26°C° 0 mm 2 mps 757 mmHg 56%
    07:00 +27°C° 0 mm 2 mps 758 mmHg 54%
    08:00 +29°C° 0 mm 3 mps 758 mmHg 51%
    09:00 +31°C° 0 mm 3 mps 758 mmHg 44%
    10:00 +34°C° 0 mm 3 mps 758 mmHg 38%
    11:00 +36°C° 0 mm 3 mps 758 mmHg 31%
    12:00 +37°C° 0 mm 3 mps 757 mmHg 29%
    13:00 +38°C° 0 mm 3 mps 756 mmHg 27%
    14:00 +39°C° 0 mm 3 mps 755 mmHg 24%
    15:00 +38°C° 0 mm 3 mps 755 mmHg 27%
    16:00 +36°C° 0 mm 3 mps 756 mmHg 30%
    17:00 +35°C° 0 mm 3 mps 756 mmHg 33%
    18:00 +33°C° 0 mm 3 mps 756 mmHg 37%
    19:00 +32°C° 0 mm 4 mps 757 mmHg 41%
    20:00 +29°C° 0 mm 4 mps 757 mmHg 44%
    21:00 +28°C° 0.2 mm 4 mps 757 mmHg 49%
    22:00 +27°C° 0.2 mm 4 mps 758 mmHg 54%
    23:00 +26°C° 0.2 mm 4 mps 758 mmHg 59%

    Day after tomorrow, 19 November, Monday

    Time Temperature Precipitation Wind Pressure Humidity
    00:00 +26°C° 0.1 mm 3 mps 757 mmHg 61%
    01:00 +25°C° 0.1 mm 3 mps 757 mmHg 63%
    02:00 +25°C° 0.1 mm 3 mps 757 mmHg 65%
    03:00 +25°C° 0.2 mm 2 mps 757 mmHg 68%
    04:00 +24°C° 0.2 mm 1 mps 757 mmHg 70%
    05:00 +24°C° 0.2 mm 1 mps 757 mmHg 73%
    06:00 +24°C° 0.6 mm 1 mps 757 mmHg 75%
    07:00 +24°C° 0.6 mm 1 mps 758 mmHg 76%
    08:00 +24°C° 0.6 mm 2 mps 758 mmHg 78%
    09:00 +26°C° 0.1 mm 2 mps 758 mmHg 71%
    10:00 +28°C° 0.1 mm 2 mps 758 mmHg 64%
    11:00 +29°C° 0.1 mm 2 mps 758 mmHg 58%
    12:00 +32°C° 0 mm 2 mps 757 mmHg 50%
    13:00 +35°C° 0 mm 2 mps 756 mmHg 43%
    14:00 +36°C° 0 mm 1 mps 755 mmHg 36%
    15:00 +34°C° 0 mm 1 mps 755 mmHg 40%
    16:00 +33°C° 0 mm 1 mps 755 mmHg 44%
    17:00 +31°C° 0 mm 1 mps 755 mmHg 48%
    18:00 +30°C° 0 mm 1 mps 756 mmHg 51%
    19:00 +29°C° 0 mm 1 mps 756 mmHg 54%
    20:00 +28°C° 0 mm 1 mps 757 mmHg 57%
    21:00 +28°C° 0.1 mm 1 mps 757 mmHg 59%
    22:00 +27°C° 0.1 mm 1 mps 757 mmHg 62%
    23:00 +27°C° 0.1 mm 1 mps 757 mmHg 65%

    20 November, Tuesday

    Time Temperature Precipitation Wind Pressure Humidity
    00:00 +26°C° 0.1 mm 1 mps 757 mmHg 67%
    01:00 +26°C° 0.1 mm 1 mps 756 mmHg 70%
    02:00 +25°C° 0.1 mm 1 mps 756 mmHg 73%
    03:00 +25°C° 0 mm 1 mps 756 mmHg 74%
    04:00 +25°C° 0 mm 1 mps 756 mmHg 75%
    05:00 +24°C° 0 mm 1 mps 756 mmHg 76%
    06:00 +26°C° 0 mm 1 mps 757 mmHg 70%
    07:00 +27°C° 0 mm 1 mps 757 mmHg 63%
    08:00 +29°C° 0 mm 1 mps 758 mmHg 57%
    09:00 +31°C° 0 mm 1 mps 758 mmHg 49%
    10:00 +34°C° 0 mm 1 mps 758 mmHg 42%
    11:00 +37°C° 0 mm 1 mps 757 mmHg 34%
    12:00 +39°C° 0 mm 1 mps 757 mmHg 32%
    13:00 +37°C° 0 mm 0 mps 756 mmHg 29%
    14:00 +38°C° 0 mm 0 mps 755 mmHg 27%
    15:00 +36°C° 0 mm 0 mps 755 mmHg 31%
    16:00 +34°C° 0 mm 0 mps 755 mmHg 35%
    17:00 +32°C° 0 mm 0 mps 755 mmHg 38%
    18:00 +31°C° 0 mm 0 mps 755 mmHg 40%
    19:00 +32°C° 0 mm 1 mps 756 mmHg 42%
    20:00 +31°C° 0 mm 1 mps 757 mmHg 43%
    21:00 +30°C° 0 mm 1 mps 757 mmHg 46%
    22:00 +30°C° 0 mm 1 mps 757 mmHg 49%
    23:00 +29°C° 0 mm 1 mps 757 mmHg 52%

    21 November, Wednesday

    Time Temperature Precipitation Wind Pressure Humidity
    00:00 +28°C° 0 mm 1 mps 756 mmHg 54%
    01:00 +28°C° 0 mm 1 mps 756 mmHg 56%
    02:00 +27°C° 0 mm 1 mps 756 mmHg 58%
    03:00 +27°C° 0 mm 1 mps 756 mmHg 56%
    04:00 +26°C° 0 mm 1 mps 756 mmHg 54%
    05:00 +26°C° 0 mm 1 mps 756 mmHg 52%
    06:00 +27°C° 0 mm 1 mps 757 mmHg 49%
    07:00 +28°C° 0 mm 1 mps 757 mmHg 45%
    08:00 +29°C° 0 mm 1 mps 758 mmHg 41%
    09:00 +32°C° 0 mm 2 mps 757 mmHg 36%
    10:00 +35°C° 0 mm 2 mps 757 mmHg 31%
    11:00 +38°C° 0 mm 2 mps 757 mmHg 25%
    12:00 +39°C° 0 mm 2 mps 756 mmHg 24%
    13:00 +41°C° 0 mm 1 mps 755 mmHg 24%
    14:00 +42°C° 0 mm 1 mps 754 mmHg 23%
    15:00 +40°C° 0 mm 1 mps 754 mmHg 26%
    16:00 +37°C° 0 mm 1 mps 754 mmHg 29%
    17:00 +36°C° 0 mm 1 mps 754 mmHg 32%
    18:00 +34°C° 0 mm 1 mps 755 mmHg 35%
    19:00 +32°C° 0 mm 1 mps 755 mmHg 38%
    20:00 +31°C° 0 mm 1 mps 756 mmHg 41%
    21:00 +30°C° 0 mm 1 mps 756 mmHg 42%
    22:00 +29°C° 0 mm 1 mps 756 mmHg 44%
    23:00 +29°C° 0 mm 1 mps 756 mmHg 46%

    22 November, Thursday

    Time Temperature Precipitation Wind Pressure Humidity
    00:00 +28°C° 0 mm 1 mps 756 mmHg 48%
    01:00 +27°C° 0 mm 1 mps 756 mmHg 50%
    02:00 +26°C° 0 mm 1 mps 755 mmHg 53%
    03:00 +26°C° 0 mm 1 mps 756 mmHg 53%
    04:00 +26°C° 0 mm 1 mps 756 mmHg 54%
    05:00 +25°C° 0 mm 1 mps 756 mmHg 55%
    06:00 +27°C° 0 mm 1 mps 756 mmHg 51%
    07:00 +28°C° 0 mm 2 mps 757 mmHg 47%
    08:00 +29°C° 0 mm 2 mps 757 mmHg 43%
    09:00 +32°C° 0 mm 2 mps 757 mmHg 36%
    10:00 +36°C° 0 mm 3 mps 756 mmHg 29%
    11:00 +38°C° 0 mm 3 mps 756 mmHg 22%
    12:00 +39°C° 0 mm 2 mps 755 mmHg 22%
    13:00 +40°C° 0 mm 2 mps 754 mmHg 21%
    14:00 +41°C° 0 mm 1 mps 753 mmHg 20%
    15:00 +40°C° 0 mm 1 mps 753 mmHg 23%
    16:00 +39°C° 0 mm 1 mps 753 mmHg 26%
    17:00 +34°C° 0 mm 0 mps 753 mmHg 28%
    18:00 +34°C° 0 mm 1 mps 754 mmHg 30%
    19:00 +33°C° 0 mm 1 mps 754 mmHg 32%
    20:00 +31°C° 0 mm 1 mps 755 mmHg 35%
    21:00 +30°C° 0 mm 1 mps 755 mmHg 37%
    22:00 +29°C° 0 mm 1 mps 755 mmHg 40%
    23:00 +29°C° 0 mm 2 mps 755 mmHg 42%
    Show more